Location: Great Falls
(47.5000°N, 111.3000°W)
Time: 13:09:23
(UTC-07:00)

N. Korean satellite - Visible Passes

Search period start: 17 January 2018 00:00
Search period end: 27 January 2018 00:00
Orbit: 459 x 515 km, 97.2° (Epoch: 17 January)

Date Brightness Start Highest point End Pass type
(mag) Time Alt. Az. Time Alt. Az. Time Alt. Az.
17 Jan 10.2 06:02:07 10° E 06:02:36 10° E 06:03:06 10° E visible
17 Jan 6.5 18:11:56 10° SSE 18:15:35 84° ENE 18:19:10 10° N visible
18 Jan 6.8 07:09:23 10° NNE 07:12:51 70° ESE 07:16:17 10° S visible
18 Jan 6.9 17:48:32 10° SE 17:51:58 42° ENE 17:55:22 10° N visible
18 Jan 9.9 19:23:35 10° SW 19:25:41 15° W 19:27:46 10° NW visible
19 Jan 8.3 06:45:56 10° NNE 06:49:07 34° E 06:52:18 10° SSE visible
19 Jan 8.9 18:58:47 10° SSW 19:01:51 26° W 19:04:55 10° NW visible
20 Jan 9.5 06:22:48 10° NE 06:25:19 19° E 06:27:48 10° SE visible
20 Jan 7.5 18:34:36 10° S 18:38:06 50° W 18:41:34 10° NNW visible
21 Jan 6.4 18:10:51 10° SSE 18:14:25 82° ENE 18:17:58 10° N visible
22 Jan 6.9 07:08:12 10° NNE 07:11:40 68° ESE 07:15:06 10° S visible
22 Jan 6.9 17:47:25 10° SE 17:50:48 41° ENE 17:54:09 10° N visible
22 Jan 9.9 19:22:25 10° SW 19:24:31 15° W 19:26:35 10° NW visible
23 Jan 8.4 06:44:44 10° NNE 06:47:55 33° E 06:51:06 10° SSE visible
23 Jan 8.9 18:57:37 10° SSW 19:00:40 26° W 19:03:43 10° NW visible
24 Jan 9.6 06:21:38 10° NE 06:24:07 18° E 06:26:34 10° SE visible
24 Jan 7.5 18:33:27 10° S 18:36:55 51° W 18:40:21 10° NNW visible
25 Jan 6.4 18:09:40 10° SSE 18:13:13 80° ENE 18:16:44 10° N visible
26 Jan 6.9 07:06:59 10° NNE 07:10:26 66° E 07:13:53 10° S visible
26 Jan 6.9 17:46:16 10° SE 17:49:36 40° ENE 17:52:54 10° N visible
26 Jan 9.9 19:21:13 10° SW 19:23:18 15° W 19:25:22 10° NW visible
